Flag for U.S.A. Weather past 2 weeks in Wichita, Kansas, U.S.A.

Now
74 °F

Passing clouds.


Feels Like: 77 °F
Forecast: 62 / 81 °F
Wind: 14 mph from South

Location: Wichita Mid-Continent Airport

Current Time: Sep 14, 2014 at 9:43:12 PM

Latest Report: Sep 14, 2014 at 8:53 PM


Visibility: 10 mi

Pressure: 30.01 "Hg

Humidity: 62%

Dew point: 60 °F

Location of WichitaLocation

Historic Weather in Wichita — Graph

°F

Wichita temperature yesterday

Maximum temperature yesterday: 67 °F (at 2:53 PM)
Minimum temperature yesterday: 43 °F (at 6:53 AM)
Average temperature yesterday: 55 °F

Past Weeks' High & Low Weather Summary

 TemperatureHumidityPressure
High99 °F (Aug 31, 3:53 PM)94% (Sep 8, 7:53 AM)30.43 "Hg (Sep 8, 7:53 AM)
Low43 °F (Sep 13, 6:53 AM)26% (Sep 4, 3:53 PM)29.53 "Hg (Sep 10, 12:53 AM)
Average73 °F63%29.98 "Hg
* Reported Aug 30 7:53 PM — Sep 14 7:53 PM, Wichita, Weather by CustomWeather, © 2014

Note: Actual official high and low records may vary slightly from our data, if they occured in-between our weather recording intervals... More about our weather records

Advertising

Wichita weather history for previous 24 hours

 ConditionsComfort  
Time TempWeatherWind HumidityBarometerVisibility
7:53 PM
Sep 14
77 °FPassing clouds.18 mph54%30.00 "Hg10 mi
6:53 PM80 °FPassing clouds.18 mph49%30.00 "Hg10 mi
5:53 PM83 °FPassing clouds.21 mph43%30.01 "Hg10 mi
4:53 PM84 °FPassing clouds.25 mph41%30.01 "Hg10 mi
3:53 PM82 °FPassing clouds.21 mph43%30.03 "Hg10 mi
2:53 PM78 °FScattered clouds.18 mph46%30.07 "Hg10 mi
1:53 PM75 °FScattered clouds.16 mph48%30.11 "Hg10 mi
12:53 PM71 °FPartly sunny.16 mph51%30.14 "Hg10 mi
11:53 AM71 °FPartly sunny.16 mph51%30.16 "Hg10 mi
10:53 AM68 °FScattered clouds.15 mph55%30.19 "Hg10 mi
9:53 AM64 °FPassing clouds.13 mph63%30.21 "Hg10 mi
8:53 AM58 °FScattered clouds.10 mph75%30.22 "Hg10 mi
7:53 AM53 °FPassing clouds.6 mph86%30.22 "Hg10 mi
6:53 AM52 °FPassing clouds.6 mph83%30.20 "Hg10 mi
5:53 AM51 °FPassing clouds.5 mph86%30.20 "Hg10 mi
4:53 AM52 °FPassing clouds.3 mph83%30.20 "Hg10 mi
3:53 AM53 °FPassing clouds.3 mph80%30.20 "Hg10 mi
2:53 AM53 °FPassing clouds.No wind80%30.22 "Hg10 mi
1:53 AM54 °FPassing clouds.10 mph77%30.22 "Hg10 mi
12:53 AM55 °FPassing clouds.10 mph72%30.22 "Hg10 mi
11:53 PM
Sep 13
55 °FPassing clouds.8 mph69%30.22 "Hg10 mi
10:53 PM57 °FPassing clouds.8 mph64%30.22 "Hg10 mi
9:53 PM57 °FPassing clouds.7 mph62%30.23 "Hg10 mi
Weather by CustomWeather, © 2014

See weather overviewHow to use our weather pages